SCP
0 0 -0 -0 -0 -0 0 0 0 0 0 0 0 0 0 0 0 0 0 -0 -0 0 -0 -0 -0 -0 -0 -0 -0 -0 -0 -0 -0 -0 -0 -0 -0 -0 -0 -0 -0 -0 -0 -0 -0 -0 -0 0 0
0 0 -0 -0 0 0 0 0 0 0 0 0 0 0 0 0 0 0 0 -0 -0 0 0 0 -0 -0 -0 -0 -0 -0 -0 -0 -0 -0 -0 -0 -0 -0 -0 -0 -0 -0 -0 -0 -0 -0 -0 -0 -0
0 -0 0 -0 -0 0 -0 0 0 0 0 0 0 0 0 0 0 0 -0 0 0 0 0 -0 -0 -0 -0 -0 -0 -0 -0 -0 -0 -0 -0 -0 -0 -0 -0 -0 -0 -0 -0 -0 -0 -0 -0 -0 -0
0 -0 -0 -0 -0 0 0 -0 0 0 0 0 0 0 0 0 0 -0 -0 0 -0 0 -0 -0 -0 -0 -0 -0 -0 -0 -0 -0 -0 -0 -0 -0 -0 -0 -0 -0 -0 -0 -0 -0 -0 -0 -0 -0 -0
0 0 0 0 0 0 0 0 -0 0 0 0 0 0 0 0 -0 -0 -0 -0 -0 0 -0 -0 -0 -0 -0 -0 -0 -0 -0 -0 -0 -0 -0 -0 -0 -0 -0 -0 -0 -0 -0 -0 -0 -0 -0 -0 -0
0 0 0 0 0 0 0 0 0 0 0 0 0 0 0 0 0 -0 -0 0 -0 -0 -0 -0 -0 -0 -0 -0 -0 -0 -0 -0 -0 -0 -0 -0 -0 -0 -0 -0 -0 -0 -0 -0 -0 -0 -0 -0 -0
0 0 0 0 0 0 0 0 0 0 0 0 0 0 0 0 0 0 0 0 0 -0 0 0 0 -0 -0 -0 -0 -0 -0 -0 -0 -0 -0 -0 -0 -0 -0 -0 -0 -0 -0 -0 -0 -0 -0 -0 -0
0 0 0 0 0 0 0 0 0 0 0 0 0 0 0 0 0 0 0 0 0 0 0 0 0 0 0 0 -0 -0 -0 -0 -0 -0 -0 -0 -0 -0 -0 -0 -0 -0 -0 -0 -0 -0 -0 -0 -0
0 0 0 0 0 0 0 0 0 0 0 0 0 0 0 0 0 0 0 0 0 0 0 0 0 0 0 0 0 0 -0 -0 -0 -0 -0 0 0 0 0 0 -0 -0 -0 -0 -0 -0 -0 -0 -0
0 0 0 0 0 0 0 0 0 0 0 0 0 0 0 0 0 0 0 0 0 0 0 0 0 0 0 0 0 0 0 0 0 0 0 0 0 0 0 0 0 0 0 -0 -0 -0 0 0 0
0 0 0 0 0 0 0 0 0 0 0 0 0 0 0 0 0 0 0 0 0 0 0 0 0 0 0 0 0 0 0 0 0 0 0 0 0 0 0 0 0 0 0 0 0 0 0 0 0
0 0 0 0 0 0 0 0 0 0 0 0 0 0 0 0 0 0 0 0 0 0 0 0 0 0 0 0 0 0 0 0 0 0 0 0 0 0 0 0 0 0 0 0 0 0 0 0 0
0 0 0 0 0 0 0 0 0 0 0 0 0 0 0 0 0 0 0 0 0 0 0 0 0 0 0 0 0 0 0 0 0 0 0 0 0 0 0 0 0 0 0 0 0 0 0 0 0
0 0 0 0 0 0 0 0 0 0 0 0 0 0 0 0 0 0 0 0 0 0 0 0 0 0 0 0 0 0 0 0 0 0 0 0 0 0 0 0 0 0 0 0 0 0 0 0 0
0 0 0 0 0 0 0 0 0 0 0 0 0 0 0 0 0 0 0 0 0 0 0 0 0 0 0 0 0 0 0 0 0 0 0 0 0 0 0 0 0 0 0 0 0 0 0 0 0
0 0 0 0 0 0 0 0 0 0 0 0 0 0 0 0 0 0 0 0 0 0 0 0 0 0 0 0 0 0 0 0 0 0 0 0 0 0 0 0 0 0 0 0 0 0 0 0 0
0 0 0 0 0 0 0 0 0 0 0 0 0 0 0 0 0 0 0 0 0 0 0 0 0 0 0 0 0 0 0 0 0 0 0 0 0 0 0 0 0 0 0 0 0 0 0 0 0
0 0 0 0 0 0 0 0 0 0 0 0 0 0 0 0 0 0 0 0 0 0 0 0 0 0 0 0 0 0 0 0 0 0 0 0 0 0 0 0 0 0 0 0 0 0 0 0 0
0 0 0 0 0 0 0 0 0 0 0 0 0 0 0 0 0 0 0 0 0 0 0 0 0 0 0 0 0 0 0 0 0 0 0 0 0 0 0 0 0 0 0 0 0 0 0 0 0
0 0 0 0 0 0 0 0 0 0 0 0 0 0 0 0 0 0 0 0 0 0 0 0 0 0 0 0 0 0 0 0 0 0 0 0 0 0 0 0 0 0 0 0 0 0 0 0 0
0 0 0 0 0 0 0 0 0 0 0 0 0 0 0 0 0 0 0 0 0 0 0 0 0 0 0 0 0 0 0 0 0 0 0 0 0 0 0 0 0 0 0 0 0 0 0 0 0
0 0 0 0 0 0 0 -0 0 0 0 0 0 0 0 0 0 0 0 0 0 0 0 0 0 0 0 0 0 0 0 0 0 0 0 0 0 0 0 0 0 0 0 0 0 0 0 0 0
0 0 0 0 0 0 0 0 0 0 0 0 0 0 0 0 0 0 0 0 0 0 0 0 0 0 0 0 0 0 0 0 0 0 0 0 0 0 0 0 0 0 0 0 0 0 0 0 0
0 0 0 0 0 0 0 0 -0 0 0 -0 0 0 0 0 0 0 0 0 0 0 0 0 0 0 0 0 0 0 0 0 0 0 0 0 0 0 0 0 0 0 0 0 0 0 0 0 0
0 0 0 0 0 0 0 0 0 0 0 0 0 0 0 0 0 0 0 0 0 0 0 0 0 0 0 0 0 0 0 0 0 0 0 0 0 0 0 0 0 0 0 0 0 0 0 0 0
0 0 0 0 0 0 0 0 0 0 0 0 0 0 0 0 0 0 0 0 0 0 0 0 0 0 0 0 0 0 0 0 0 0 0 0 0 0 0 0 0 0 0 0 0 0 0 0 0
0 0 0 0 0 0 0 0 0 0 0 0 0 0 0 0 0 0 0 0 0 0 0 0 0 0 0 0 0 0 0 0 0 0 0 0 0 0 0 0 0 0 0 0 0 0 0 0 0
0 0 0 0 0 0 0 0 0 0 0 0 0 0 0 0 0 0 0 0 0 0 0 0 0 0 0 0 0 0 0 0 0 0 0 0 0 0 0 0 0 0 0 0 0 0 0 0 0
0 0 0 0 0 0 0 0 0 0 0 0 0 0 -0 0 0 0 0 0 0 0 0 0 0 0 0 0 0 0 0 0 0 0 0 0 0 0 0 0 0 0 0 0 0 0 0 0 0
0 0 0 0 0 0 0 0 0 0 0 0 0 0 0 0 0 0 0 0 0 0 0 0 0 0 0 0 0 0 0 0 0 0 0 0 0 0 0 0 0 0 0 0 0 0 0 0 0
Wind_Speed_500mb
5 5 6 1 8 10 1 7 3 7 3 2 10 9 12 7 7 6 32 25 25 27 28 27 23 22 20 20 20 18 17 13 17 23 27 29 30 29 28 27 27 26 25 23 20 20 20 22 27
6 7 5 5 9 6 8 6 7 7 22 33 22 12 7 2 7 18 25 22 21 26 28 27 25 22 19 17 17 17 16 11 15 20 24 28 30 30 29 28 27 26 24 22 22 19 20 20 22
10 9 2 9 7 7 8 8 9 12 28 4 9 10 7 9 16 19 16 21 27 29 26 26 25 22 20 18 15 14 13 11 10 16 23 26 28 29 30 29 27 25 24 23 22 20 21 22 24
9 5 10 8 5 5 5 10 11 20 7 5 15 11 9 13 18 17 22 24 30 31 27 25 24 22 20 17 14 12 10 9 8 12 17 19 23 26 27 26 25 25 25 24 23 22 21 21 21
8 4 8 6 5 5 6 11 28 10 5 10 10 9 10 18 17 21 26 23 28 28 26 25 25 23 21 18 15 12 10 9 9 8 10 14 18 21 22 22 23 23 23 23 22 22 21 22 21
4 6 8 3 6 6 5 16 18 11 12 14 9 18 13 19 22 26 32 27 28 20 24 21 20 20 20 20 17 13 11 9 9 6 7 11 15 17 18 21 23 22 22 22 20 20 18 17 14
11 8 9 9 6 3 8 20 13 18 15 13 14 12 8 28 27 32 36 32 31 25 26 20 17 17 16 19 20 16 13 10 10 8 3 6 12 15 18 20 20 20 20 21 20 20 17 15 11
7 11 8 7 11 10 9 17 9 22 12 17 22 10 10 38 35 35 38 37 34 35 34 31 28 27 27 22 19 19 17 14 13 11 6 2 9 14 18 20 19 20 19 20 20 19 18 16 14
7 9 5 11 13 8 16 8 10 11 16 25 22 14 13 40 42 41 42 43 39 42 40 35 32 35 32 28 22 20 21 18 17 17 12 8 8 12 15 21 23 24 24 21 19 18 18 17 16
8 8 17 11 10 5 12 12 22 12 12 19 21 28 22 42 47 47 48 47 47 49 47 38 35 37 34 30 26 24 24 25 24 21 16 11 6 2 4 14 19 21 24 23 19 19 20 19 18
5 7 8 6 7 8 10 8 18 16 8 29 40 39 35 47 51 49 49 47 47 51 53 45 37 39 37 35 35 31 33 30 29 26 21 15 13 14 5 3 7 11 18 17 16 17 17 16 13
3 1 4 3 7 4 5 4 9 23 23 14 32 33 43 51 56 56 55 52 52 53 54 50 44 44 41 39 39 37 38 36 35 28 25 24 19 19 14 10 10 6 7 11 7 6 7 8 9
3 1 3 7 9 8 7 16 17 25 39 32 22 33 45 52 54 55 53 52 53 54 55 55 53 45 47 46 41 44 44 42 38 36 31 30 26 27 24 21 15 12 7 8 9 4 4 6 8
1 2 7 9 12 10 7 9 6 18 40 40 35 38 46 54 55 57 60 59 59 55 56 55 56 55 55 55 50 46 46 46 38 38 35 36 32 31 30 29 20 18 8 3 12 16 7 1 5
2 6 12 12 9 9 8 14 20 45 34 34 43 43 50 55 58 63 58 58 57 56 56 56 57 58 60 59 59 57 51 49 49 45 44 38 36 34 40 31 26 24 12 5 10 8 6 5 2
5 8 5 4 9 4 13 21 9 10 35 46 46 47 53 58 62 60 58 58 57 58 57 57 59 59 58 58 57 61 56 55 50 50 46 46 42 42 40 35 34 28 13 7 12 12 11 7 8
11 6 8 16 13 4 7 15 5 7 23 40 47 55 60 62 65 64 63 62 60 58 56 54 52 50 51 54 56 58 57 59 58 53 51 49 45 48 49 32 42 28 13 16 15 18 15 14 20
12 8 8 10 5 6 9 24 22 25 20 39 45 54 63 71 77 69 67 65 62 61 57 55 53 49 48 49 53 52 54 57 57 54 69 56 41 48 39 46 40 20 18 22 22 20 20 23 28
10 9 11 9 8 10 17 19 31 28 35 54 69 68 73 79 71 73 71 68 66 65 64 62 58 54 52 52 55 56 55 55 55 65 56 59 51 60 37 54 26 23 24 27 26 26 27 34 32
6 6 11 12 7 11 18 27 26 34 30 62 76 83 90 92 86 78 76 76 74 69 67 65 61 57 53 50 55 58 61 63 64 55 47 43 44 43 34 35 27 29 32 31 31 30 31 33 32
10 12 10 14 8 8 11 16 15 15 38 66 85 99 93 89 88 86 80 83 81 76 71 68 64 57 53 52 55 59 63 61 64 62 62 53 48 44 36 29 33 36 35 31 31 30 27 30 29
12 16 9 8 5 9 5 17 11 15 24 13 70 73 78 79 80 77 76 87 87 80 75 71 63 58 55 49 48 54 59 66 62 66 57 59 53 47 38 34 36 36 35 33 36 36 29 25 23
13 10 13 5 7 6 2 9 4 3 12 28 45 65 71 67 64 66 69 73 85 83 79 71 63 60 55 52 49 57 61 66 65 60 67 65 57 48 46 41 39 40 41 42 39 35 33 30 26
16 11 10 7 4 8 18 15 3 11 13 13 20 41 31 32 38 44 49 56 72 83 80 73 67 64 56 54 53 59 60 64 68 71 71 66 61 54 50 47 48 47 48 44 41 39 35 30 25
6 13 4 7 2 15 3 9 34 13 14 14 20 46 36 27 29 36 44 52 64 79 85 75 70 66 61 59 59 61 68 66 68 75 74 69 63 57 52 53 54 53 49 45 41 38 33 26 18
18 15 12 14 8 9 2 16 13 16 39 48 48 39 32 33 33 36 41 46 54 72 84 77 70 64 62 64 64 68 70 70 75 77 74 71 65 56 61 61 59 55 49 43 38 33 28 22 16
12 14 8 7 5 4 10 16 16 15 22 32 40 45 46 39 31 34 38 43 49 66 82 79 71 65 64 66 70 71 76 79 75 76 76 71 66 66 69 68 64 56 49 43 38 33 27 23 17
10 14 7 3 4 10 10 13 16 11 16 15 14 23 26 21 25 27 31 37 44 59 73 74 68 66 65 71 72 71 72 75 78 78 77 74 70 72 73 71 64 57 51 45 39 33 27 20 15
7 8 5 10 9 9 5 16 15 18 12 9 12 20 15 14 17 21 24 31 40 55 70 70 68 65 68 70 74 75 77 76 76 75 76 73 73 74 73 69 63 56 50 44 38 32 25 21 16
2 14 13 9 10 7 3 29 7 13 10 7 22 19 18 8 11 18 22 29 42 56 66 70 68 64 65 68 72 73 74 73 76 77 76 76 77 78 76 70 63 56 50 43 36 30 26 20 15
Wind_Direction_500mb
214 199 166 170 59 67 226 255 297 134 143 173 140 163 163 79 149 196 148 150 155 170 165 163 161 159 154 145 137 129 121 91 84 66 60 60 59 58 57 62 65 65 64 63 68 85 90 81 75
169 160 151 92 88 77 264 256 202 198 136 114 99 92 62 74 114 139 153 159 158 170 170 169 165 164 160 153 145 137 128 108 81 73 63 58 54 52 57 61 63 65 69 76 84 93 88 89 75
148 164 192 93 107 170 194 207 192 137 145 99 113 87 102 125 133 143 164 175 168 168 172 174 172 171 169 165 159 149 139 133 94 73 61 55 55 56 54 55 58 62 67 72 80 89 99 96 86
161 155 66 83 185 238 220 184 155 139 219 152 135 85 125 155 163 156 153 166 160 169 176 180 180 179 179 177 171 163 154 141 120 100 72 65 58 51 51 57 61 62 65 70 79 93 105 109 104
157 109 59 80 286 267 250 173 157 161 165 156 163 182 160 168 175 165 158 159 164 172 181 182 186 187 187 186 182 179 169 162 150 126 77 64 57 53 56 61 66 69 72 74 83 94 103 106 108
114 84 65 189 258 274 261 174 162 175 171 165 161 155 166 180 171 164 160 160 169 177 180 184 186 192 197 198 192 191 184 178 173 148 86 68 65 62 65 68 68 72 79 86 87 94 97 102 103
124 86 186 171 212 289 215 172 175 171 168 199 167 137 200 179 173 167 169 168 171 171 191 194 196 214 210 200 198 201 200 194 198 179 139 81 69 69 70 74 79 80 77 75 76 76 84 89 88
118 92 120 208 189 231 197 173 206 175 185 170 172 196 205 187 180 177 177 180 182 180 189 186 201 210 222 222 208 207 207 213 207 200 162 133 87 71 72 68 74 80 80 78 77 79 78 74 70
126 68 186 207 153 236 172 159 173 192 160 179 200 210 209 189 188 186 187 191 193 191 189 193 203 212 216 222 217 213 212 210 206 193 189 172 109 83 83 68 66 69 69 72 75 75 73 70 67
88 114 211 192 195 226 198 188 174 166 171 214 220 221 213 193 196 196 197 199 200 199 199 201 207 211 215 214 213 223 224 210 211 210 203 214 207 134 89 65 57 63 60 59 73 82 81 81 78
127 178 190 217 218 236 203 218 181 161 221 220 221 217 208 197 200 204 205 209 209 207 213 213 210 212 212 216 214 216 221 221 218 216 217 220 225 204 184 276 90 37 37 46 65 84 92 87 73
91 164 171 207 229 201 198 199 214 208 231 242 238 236 215 205 207 210 210 211 211 213 220 224 231 215 219 218 224 219 229 229 221 228 221 229 229 213 204 212 226 201 92 10 33 75 85 71 42
104 320 256 259 248 252 258 243 236 248 245 250 240 225 220 214 215 215 216 218 220 222 225 230 238 228 226 225 217 224 222 229 227 220 226 225 234 220 219 206 218 205 158 322 322 303 303 345 17
359 296 283 266 255 244 221 266 227 248 243 244 241 228 222 222 221 218 220 222 225 228 232 234 234 234 231 230 225 221 225 227 231 228 228 228 229 238 224 226 214 216 198 160 322 294 284 297 30
34 331 329 249 240 237 207 288 233 252 252 240 238 230 224 227 225 228 232 233 233 234 235 235 236 235 235 234 231 221 225 225 227 230 229 237 232 237 245 211 210 217 191 194 295 263 250 199 97
65 46 355 292 156 249 157 271 241 263 238 238 233 231 229 229 233 232 233 234 236 237 238 238 237 236 234 231 227 223 218 226 224 229 232 236 235 238 226 226 210 207 202 262 249 238 213 171 150
8 232 213 316 204 124 171 263 266 251 223 242 242 239 238 239 236 236 235 236 237 240 239 235 233 231 229 227 223 219 218 224 228 229 235 232 231 229 254 218 220 200 210 243 231 241 212 190 157
203 212 236 235 221 185 226 257 267 253 244 252 255 250 246 244 244 242 237 238 237 236 234 230 228 227 226 223 215 216 216 221 226 231 231 229 235 239 227 222 227 205 206 229 233 209 188 172 158
145 189 224 238 234 196 229 241 262 258 251 262 260 254 251 248 250 241 238 236 236 234 232 230 230 229 227 222 214 208 213 214 226 209 227 233 226 225 223 220 205 206 224 225 215 198 184 164 158
161 217 252 283 243 190 270 260 251 257 236 250 257 257 254 252 249 242 235 233 235 234 231 230 231 230 230 225 217 216 213 214 216 220 235 223 218 211 224 214 225 215 224 208 201 200 190 177 167
216 204 221 224 322 242 319 270 231 268 248 256 258 258 259 258 255 248 237 234 232 231 228 229 231 231 230 223 217 210 208 215 224 222 224 219 211 207 205 214 232 214 200 198 190 189 194 188 183
237 206 190 232 64 252 20 288 209 234 243 247 259 258 260 258 257 256 245 237 233 231 227 227 229 229 229 225 216 216 216 211 215 218 210 208 202 201 201 210 214 201 195 196 185 181 187 196 201
225 135 170 161 180 354 321 273 206 176 245 252 255 261 265 267 265 261 255 246 235 229 227 224 224 226 225 219 215 213 218 220 206 212 203 199 199 199 200 206 217 202 193 188 187 186 186 188 195
147 85 56 53 104 278 193 189 185 187 209 252 250 267 287 284 268 259 253 241 233 226 223 221 220 222 220 214 208 211 210 210 215 205 200 197 198 195 197 202 203 193 188 189 188 189 189 188 186
135 108 300 323 2 244 0 224 260 284 245 235 257 282 289 282 269 260 247 235 228 219 219 218 217 218 216 209 207 209 212 218 223 210 202 201 198 195 198 200 194 191 191 190 191 189 185 181 182
198 162 165 219 214 273 29 240 252 230 259 268 273 279 283 279 267 254 243 237 231 218 215 216 217 217 214 208 207 208 212 211 210 209 204 203 200 201 199 196 193 193 193 193 191 188 186 184 186
196 205 156 80 83 16 224 286 289 260 273 273 284 287 285 272 260 253 244 237 229 218 215 217 217 217 214 210 208 209 210 211 214 210 206 205 201 203 196 194 194 195 196 195 193 191 191 186 181
162 166 86 4 204 257 277 271 227 263 268 322 326 298 288 269 246 247 241 236 226 219 216 219 221 220 214 212 211 214 215 219 216 211 210 208 203 198 196 194 194 195 195 194 192 191 187 182 178
153 188 118 131 150 185 303 261 215 211 203 257 295 328 324 277 251 248 239 231 224 216 216 219 222 221 217 215 212 215 216 220 217 213 212 209 203 200 198 196 196 197 197 194 192 189 186 182 179
222 199 152 157 208 241 162 265 183 210 191 266 280 329 344 287 240 243 231 225 221 215 216 221 227 226 223 222 220 219 220 222 217 214 212 209 204 202 200 199 199 198 196 195 193 193 186 179 180
Wind_Speed_850mb
5 5 6 1 8 10 1 7 3 7 3 2 10 9 12 7 7 6 32 25 25 27 28 27 23 22 20 20 20 18 17 13 17 23 27 29 30 29 28 27 27 26 25 23 20 20 20 22 27
6 7 5 5 9 6 8 6 7 7 22 33 22 12 7 2 7 18 25 22 21 26 28 27 25 22 19 17 17 17 16 11 15 20 24 28 30 30 29 28 27 26 24 22 22 19 20 20 22
10 9 2 9 7 7 8 8 9 12 28 4 9 10 7 9 16 19 16 21 27 29 26 26 25 22 20 18 15 14 13 11 10 16 23 26 28 29 30 29 27 25 24 23 22 20 21 22 24
9 5 10 8 5 5 5 10 11 20 7 5 15 11 9 13 18 17 22 24 30 31 27 25 24 22 20 17 14 12 10 9 8 12 17 19 23 26 27 26 25 25 25 24 23 22 21 21 21
8 4 8 6 5 5 6 11 28 10 5 10 10 9 10 18 17 21 26 23 28 28 26 25 25 23 21 18 15 12 10 9 9 8 10 14 18 21 22 22 23 23 23 23 22 22 21 22 21
4 6 8 3 6 6 5 16 18 11 12 14 9 18 13 19 22 26 32 27 28 20 24 21 20 20 20 20 17 13 11 9 9 6 7 11 15 17 18 21 23 22 22 22 20 20 18 17 14
11 8 9 9 6 3 8 20 13 18 15 13 14 12 8 28 27 32 36 32 31 25 26 20 17 17 16 19 20 16 13 10 10 8 3 6 12 15 18 20 20 20 20 21 20 20 17 15 11
7 11 8 7 11 10 9 17 9 22 12 17 22 10 10 38 35 35 38 37 34 35 34 31 28 27 27 22 19 19 17 14 13 11 6 2 9 14 18 20 19 20 19 20 20 19 18 16 14
7 9 5 11 13 8 16 8 10 11 16 25 22 14 13 40 42 41 42 43 39 42 40 35 32 35 32 28 22 20 21 18 17 17 12 8 8 12 15 21 23 24 24 21 19 18 18 17 16
8 8 17 11 10 5 12 12 22 12 12 19 21 28 22 42 47 47 48 47 47 49 47 38 35 37 34 30 26 24 24 25 24 21 16 11 6 2 4 14 19 21 24 23 19 19 20 19 18
5 7 8 6 7 8 10 8 18 16 8 29 40 39 35 47 51 49 49 47 47 51 53 45 37 39 37 35 35 31 33 30 29 26 21 15 13 14 5 3 7 11 18 17 16 17 17 16 13
3 1 4 3 7 4 5 4 9 23 23 14 32 33 43 51 56 56 55 52 52 53 54 50 44 44 41 39 39 37 38 36 35 28 25 24 19 19 14 10 10 6 7 11 7 6 7 8 9
3 1 3 7 9 8 7 16 17 25 39 32 22 33 45 52 54 55 53 52 53 54 55 55 53 45 47 46 41 44 44 42 38 36 31 30 26 27 24 21 15 12 7 8 9 4 4 6 8
1 2 7 9 12 10 7 9 6 18 40 40 35 38 46 54 55 57 60 59 59 55 56 55 56 55 55 55 50 46 46 46 38 38 35 36 32 31 30 29 20 18 8 3 12 16 7 1 5
2 6 12 12 9 9 8 14 20 45 34 34 43 43 50 55 58 63 58 58 57 56 56 56 57 58 60 59 59 57 51 49 49 45 44 38 36 34 40 31 26 24 12 5 10 8 6 5 2
5 8 5 4 9 4 13 21 9 10 35 46 46 47 53 58 62 60 58 58 57 58 57 57 59 59 58 58 57 61 56 55 50 50 46 46 42 42 40 35 34 28 13 7 12 12 11 7 8
11 6 8 16 13 4 7 15 5 7 23 40 47 55 60 62 65 64 63 62 60 58 56 54 52 50 51 54 56 58 57 59 58 53 51 49 45 48 49 32 42 28 13 16 15 18 15 14 20
12 8 8 10 5 6 9 24 22 25 20 39 45 54 63 71 77 69 67 65 62 61 57 55 53 49 48 49 53 52 54 57 57 54 69 56 41 48 39 46 40 20 18 22 22 20 20 23 28
10 9 11 9 8 10 17 19 31 28 35 54 69 68 73 79 71 73 71 68 66 65 64 62 58 54 52 52 55 56 55 55 55 65 56 59 51 60 37 54 26 23 24 27 26 26 27 34 32
6 6 11 12 7 11 18 27 26 34 30 62 76 83 90 92 86 78 76 76 74 69 67 65 61 57 53 50 55 58 61 63 64 55 47 43 44 43 34 35 27 29 32 31 31 30 31 33 32
10 12 10 14 8 8 11 16 15 15 38 66 85 99 93 89 88 86 80 83 81 76 71 68 64 57 53 52 55 59 63 61 64 62 62 53 48 44 36 29 33 36 35 31 31 30 27 30 29
12 16 9 8 5 9 5 17 11 15 24 13 70 73 78 79 80 77 76 87 87 80 75 71 63 58 55 49 48 54 59 66 62 66 57 59 53 47 38 34 36 36 35 33 36 36 29 25 23
13 10 13 5 7 6 2 9 4 3 12 28 45 65 71 67 64 66 69 73 85 83 79 71 63 60 55 52 49 57 61 66 65 60 67 65 57 48 46 41 39 40 41 42 39 35 33 30 26
16 11 10 7 4 8 18 15 3 11 13 13 20 41 31 32 38 44 49 56 72 83 80 73 67 64 56 54 53 59 60 64 68 71 71 66 61 54 50 47 48 47 48 44 41 39 35 30 25
6 13 4 7 2 15 3 9 34 13 14 14 20 46 36 27 29 36 44 52 64 79 85 75 70 66 61 59 59 61 68 66 68 75 74 69 63 57 52 53 54 53 49 45 41 38 33 26 18
18 15 12 14 8 9 2 16 13 16 39 48 48 39 32 33 33 36 41 46 54 72 84 77 70 64 62 64 64 68 70 70 75 77 74 71 65 56 61 61 59 55 49 43 38 33 28 22 16
12 14 8 7 5 4 10 16 16 15 22 32 40 45 46 39 31 34 38 43 49 66 82 79 71 65 64 66 70 71 76 79 75 76 76 71 66 66 69 68 64 56 49 43 38 33 27 23 17
10 14 7 3 4 10 10 13 16 11 16 15 14 23 26 21 25 27 31 37 44 59 73 74 68 66 65 71 72 71 72 75 78 78 77 74 70 72 73 71 64 57 51 45 39 33 27 20 15
7 8 5 10 9 9 5 16 15 18 12 9 12 20 15 14 17 21 24 31 40 55 70 70 68 65 68 70 74 75 77 76 76 75 76 73 73 74 73 69 63 56 50 44 38 32 25 21 16
2 14 13 9 10 7 3 29 7 13 10 7 22 19 18 8 11 18 22 29 42 56 66 70 68 64 65 68 72 73 74 73 76 77 76 76 77 78 76 70 63 56 50 43 36 30 26 20 15
Wind_Direction_850mb
214 199 166 170 59 67 226 255 297 134 143 173 140 163 163 79 149 196 148 150 155 170 165 163 161 159 154 145 137 129 121 91 84 66 60 60 59 58 57 62 65 65 64 63 68 85 90 81 75
169 160 151 92 88 77 264 256 202 198 136 114 99 92 62 74 114 139 153 159 158 170 170 169 165 164 160 153 145 137 128 108 81 73 63 58 54 52 57 61 63 65 69 76 84 93 88 89 75
148 164 192 93 107 170 194 207 192 137 145 99 113 87 102 125 133 143 164 175 168 168 172 174 172 171 169 165 159 149 139 133 94 73 61 55 55 56 54 55 58 62 67 72 80 89 99 96 86
161 155 66 83 185 238 220 184 155 139 219 152 135 85 125 155 163 156 153 166 160 169 176 180 180 179 179 177 171 163 154 141 120 100 72 65 58 51 51 57 61 62 65 70 79 93 105 109 104
157 109 59 80 286 267 250 173 157 161 165 156 163 182 160 168 175 165 158 159 164 172 181 182 186 187 187 186 182 179 169 162 150 126 77 64 57 53 56 61 66 69 72 74 83 94 103 106 108
114 84 65 189 258 274 261 174 162 175 171 165 161 155 166 180 171 164 160 160 169 177 180 184 186 192 197 198 192 191 184 178 173 148 86 68 65 62 65 68 68 72 79 86 87 94 97 102 103
124 86 186 171 212 289 215 172 175 171 168 199 167 137 200 179 173 167 169 168 171 171 191 194 196 214 210 200 198 201 200 194 198 179 139 81 69 69 70 74 79 80 77 75 76 76 84 89 88
118 92 120 208 189 231 197 173 206 175 185 170 172 196 205 187 180 177 177 180 182 180 189 186 201 210 222 222 208 207 207 213 207 200 162 133 87 71 72 68 74 80 80 78 77 79 78 74 70
126 68 186 207 153 236 172 159 173 192 160 179 200 210 209 189 188 186 187 191 193 191 189 193 203 212 216 222 217 213 212 210 206 193 189 172 109 83 83 68 66 69 69 72 75 75 73 70 67
88 114 211 192 195 226 198 188 174 166 171 214 220 221 213 193 196 196 197 199 200 199 199 201 207 211 215 214 213 223 224 210 211 210 203 214 207 134 89 65 57 63 60 59 73 82 81 81 78
127 178 190 217 218 236 203 218 181 161 221 220 221 217 208 197 200 204 205 209 209 207 213 213 210 212 212 216 214 216 221 221 218 216 217 220 225 204 184 276 90 37 37 46 65 84 92 87 73
91 164 171 207 229 201 198 199 214 208 231 242 238 236 215 205 207 210 210 211 211 213 220 224 231 215 219 218 224 219 229 229 221 228 221 229 229 213 204 212 226 201 92 10 33 75 85 71 42
104 320 256 259 248 252 258 243 236 248 245 250 240 225 220 214 215 215 216 218 220 222 225 230 238 228 226 225 217 224 222 229 227 220 226 225 234 220 219 206 218 205 158 322 322 303 303 345 17
359 296 283 266 255 244 221 266 227 248 243 244 241 228 222 222 221 218 220 222 225 228 232 234 234 234 231 230 225 221 225 227 231 228 228 228 229 238 224 226 214 216 198 160 322 294 284 297 30
34 331 329 249 240 237 207 288 233 252 252 240 238 230 224 227 225 228 232 233 233 234 235 235 236 235 235 234 231 221 225 225 227 230 229 237 232 237 245 211 210 217 191 194 295 263 250 199 97
65 46 355 292 156 249 157 271 241 263 238 238 233 231 229 229 233 232 233 234 236 237 238 238 237 236 234 231 227 223 218 226 224 229 232 236 235 238 226 226 210 207 202 262 249 238 213 171 150
8 232 213 316 204 124 171 263 266 251 223 242 242 239 238 239 236 236 235 236 237 240 239 235 233 231 229 227 223 219 218 224 228 229 235 232 231 229 254 218 220 200 210 243 231 241 212 190 157
203 212 236 235 221 185 226 257 267 253 244 252 255 250 246 244 244 242 237 238 237 236 234 230 228 227 226 223 215 216 216 221 226 231 231 229 235 239 227 222 227 205 206 229 233 209 188 172 158
145 189 224 238 234 196 229 241 262 258 251 262 260 254 251 248 250 241 238 236 236 234 232 230 230 229 227 222 214 208 213 214 226 209 227 233 226 225 223 220 205 206 224 225 215 198 184 164 158
161 217 252 283 243 190 270 260 251 257 236 250 257 257 254 252 249 242 235 233 235 234 231 230 231 230 230 225 217 216 213 214 216 220 235 223 218 211 224 214 225 215 224 208 201 200 190 177 167
216 204 221 224 322 242 319 270 231 268 248 256 258 258 259 258 255 248 237 234 232 231 228 229 231 231 230 223 217 210 208 215 224 222 224 219 211 207 205 214 232 214 200 198 190 189 194 188 183
237 206 190 232 64 252 20 288 209 234 243 247 259 258 260 258 257 256 245 237 233 231 227 227 229 229 229 225 216 216 216 211 215 218 210 208 202 201 201 210 214 201 195 196 185 181 187 196 201
225 135 170 161 180 354 321 273 206 176 245 252 255 261 265 267 265 261 255 246 235 229 227 224 224 226 225 219 215 213 218 220 206 212 203 199 199 199 200 206 217 202 193 188 187 186 186 188 195
147 85 56 53 104 278 193 189 185 187 209 252 250 267 287 284 268 259 253 241 233 226 223 221 220 222 220 214 208 211 210 210 215 205 200 197 198 195 197 202 203 193 188 189 188 189 189 188 186
135 108 300 323 2 244 0 224 260 284 245 235 257 282 289 282 269 260 247 235 228 219 219 218 217 218 216 209 207 209 212 218 223 210 202 201 198 195 198 200 194 191 191 190 191 189 185 181 182
198 162 165 219 214 273 29 240 252 230 259 268 273 279 283 279 267 254 243 237 231 218 215 216 217 217 214 208 207 208 212 211 210 209 204 203 200 201 199 196 193 193 193 193 191 188 186 184 186
196 205 156 80 83 16 224 286 289 260 273 273 284 287 285 272 260 253 244 237 229 218 215 217 217 217 214 210 208 209 210 211 214 210 206 205 201 203 196 194 194 195 196 195 193 191 191 186 181
162 166 86 4 204 257 277 271 227 263 268 322 326 298 288 269 246 247 241 236 226 219 216 219 221 220 214 212 211 214 215 219 216 211 210 208 203 198 196 194 194 195 195 194 192 191 187 182 178
153 188 118 131 150 185 303 261 215 211 203 257 295 328 324 277 251 248 239 231 224 216 216 219 222 221 217 215 212 215 216 220 217 213 212 209 203 200 198 196 196 197 197 194 192 189 186 182 179
222 199 152 157 208 241 162 265 183 210 191 266 280 329 344 287 240 243 231 225 221 215 216 221 227 226 223 222 220 219 220 222 217 214 212 209 204 202 200 199 199 198 196 195 193 193 186 179 180